www.pogodaiklimat.ru

Погода и климат >> Архив погоды >> Боливия >> San Matias


ПОГОДА в San Matias

  • Прогноз погоды в San Matias
  • Монитор погоды в San Matias
  • Климат города

АРХИВ ПОГОДЫ в San Matias

Время (UTC), дата Ветер
(напр.,м/с)
 
Видим.   Явления Облачность Т
(С)
Тd
(С)
f
(%)
Тe
(С)
Тes
(С)
Комфортность P
(гПа)
Po
(гПа)
Тmin
(С)
Tmax
(С)
R
(мм)
R24
(мм)
S
(см)
12 17.05 штиль 0 30 км 10/8 240 м
[Sc Ci]
+24.0 +22.6 92 +31 +32 очень
душно
1016.0 1005.0 +21.5
15 17.05 С 3 30 км 8/8 500 м
[Cu hum]
+30.0 +23.2 67 +40 +43 очень
душно
1016.5 1005.0
18 17.05 С 3 30 км 8/5 500 м
[Cu hum Ac trans]
+30.0 +21.7 61 +38 +41 очень
душно
1013.0 1002.0
21 17.05 штиль 0 30 км 4/4 500 м
[Cu hum]
+29.0 +25.0 79 +42 +42 опасность
перегрева
1011.4 1000.0 +32.0
00 18.05 штиль 0 30 км 4/4 500 м
[Cu hum]
+29.0 +25.0 79 +42 +42 опасность
перегрева
1011.4 1000.0 +32.0
12 18.05 С 3 30 км 10/0 2000 м
[Ac trans Ci]
+25.0 +22.9 88 +33 +35 очень
душно
1013.4 1003.0 +22.0
15 18.05 С 4 30 км 8/0 2000 м
[Ac trans]
+30.3 +24.3 70 +42 +47 опасность
перегрева
1013.0 1002.5
18 18.05 С 5 30 км 9/4 500 м
[Cu hum Ac trans Ci]
+32.0 +22.5 57 +41 +43 опасность
перегрева
1009.5 999.0
21 18.05 С 3 30 км 10/3 500 м
[Cu hum Ci]
+30.0 +23.2 67 +40 +40 очень
душно
1008.4 997.0 +34.0
12 19.05 С 3 30 км 10/0 2000 м
[As op Ci]
+24.0 +23.3 96 +32 +33 очень
душно
1012.4 1001.5 +23.0
15 19.05 С 4 30 км 8/4 500 м
[Cu hum Ci]
+32.8 +23.0 56 +43 +47 опасность
перегрева
1012.5 1001.5
18 19.05 С 6 30 км 5/5 500 м
[Cu hum]
+33.5 +23.5 56 +44 +46 опасность
перегрева
1008.5 998.0
21 19.05 С 3 30 км 10/3 500 м
[Cu med, cong Ci]
+30.5 +24.5 70 +43 +43 опасность
перегрева
1008.0 997.0 +34.0
12 20.05 штиль 0 30 км 10/10 500 м
[Sc]
+24.0 +21.4 85 +30 +30 очень
душно
1012.4 1003.0 +22.0
15 20.05 С 3 30 км 10/3 500 м
[Cu med, cong Ac trans Ci]
+30.8 +24.1 68 +43 +47 опасность
перегрева
1012.8 1002.0
18 20.05 Ю 3 30 км 10/8 450 м
[Sc As op]
+27.0 +23.8 83 +37 +37 очень
душно
1010.8 1000.2
21 20.05 штиль 0 30 км 10/10 450 м
[Sc]
+24.5 +23.5 94 +33 +33 очень
душно
1011.5 1001.0 +31.4
12 21.05 штиль 0 20 км 10/10 240 м
[Sc]
+23.0 +22.8 99 +32 +32 очень
душно
1016.5 1005.5 +22.0 13
15 21.05 штиль 0 30 км 10/9 450 м
[Sc Ci]
+26.0 +23.3 85 +35 +36 очень
душно
1016.5 1006.0
18 21.05 штиль 0 30 км 10/4 500 м
[Cu hum Ci]
+30.0 +24.7 73 +43 +49 опасность
перегрева
1014.5 1003.5
12 22.05 штиль 0 20 км 10/10 240 м
[Sc]
+23.0 +22.3 96 +31 +31 очень
душно
1016.4 1006.0 +22.0
15 22.05 Ю 3 30 км 10/10 400 м
[Sc]
+26.6 +23.3 82 +36 +36 очень
душно
1017.0 1006.0
18 22.05 штиль 0 8000 м слабый дождь 10/10 450 м
[Sc]
+26.0 +24.6 92 +37 +37 очень
душно
1014.5 1004.0 0.3
21 22.05 штиль 0 30 км 10/0 2000 м
[Ac As Ci]
+25.0 +23.6 92 +34 +34 очень
душно
1013.4 1003.0 +27.0
12 23.05 штиль 0 30 км 9/9 300 м
[Sc]
+23.5 +22.8 96 +31 +31 очень
душно
1017.5 1006.5 +21.5 2
15 23.05 С 3 30 км ясно +30.0 +24.7 73 +43 +53 опасность
перегрева
1018.4 1007.0
18 23.05 штиль 0 30 км 4/4 500 м
[Cu hum]
+33.0 +25.1 63 +47 +54 опасность
перегрева
1015.0 1004.0
21 23.05 штиль 0 30 км 10/0
[Ci]
+30.0 +25.7 78 +45 +45 опасность
перегрева
1013.5 1002.5 +33.0

 

Местоположение метеостанции San Matias (Боливия): широта -16.33 долгота -58.38 высота над уровнем моря 124 м.

В архиве по умолчанию представлена погода в San Matias за последнюю неделю. Архивные данные за месяц целиком и за предыдущие месяцы, начиная с января 2011 года, Вы можете получить, выбрав интересующий диапазон дат из раскрывающегося списка и нажав кнопку "Ввод!".

Внимание! Время в таблицах - всемирное. Для получения местного времени необходимо прибавить поправку, которая в San Matias равна -4 ч.

Смотрите также архив погоды в соседних городах и на ближайших метеорологических станциях:

Погода в Caceres (Бразилия) (81 км)
Погода в Cuiaba (Бразилия) (255 км)
Погода в Robore (Боливия) (265 км)
Погода в San Ignacio De Vela (Боливия) (275 км)
Погода в Diamantino (Бразилия) (298 км)
Погода в San Jose De Chiquit (Боливия) (299 км)
Погода в Puerto Suarez (Боливия) (301 км)
Погода в Concepcion (Боливия) (388 км)
Погода в Poxoreo (Бразилия) (431 км)
Погода в San Javier (Боливия) (436 км)

Пояснения к столбцам:

Ветер - указаны скорость ветра в м/с - средняя за 10 мин, порывы в срок и между сроками (в фигурных скобках) и направление, откуда дует ветер: С - северный, СВ - северо-восточный, В - восточный, ЮВ - юго-восточный, Ю - южный, ЮЗ - юго-западный, З - западный, СЗ - северо-западный.
Видимость - горизонтальная дальность видимости в метрах или километрах. При видимости от 1 до 10 км при отсутствии осадков обычно наблюдается дымка, при ухудшении видимости до 1 км и менее - туман. В сухую погоду видимость может ухудшаться дымом, пылью или мглою.
Явления - указаны атмосферные явления, наблюдавшиеся в срок или в последний час перед сроком; фигурными скобками обозначены явления, наблюдавшиеся между сроками (за 1-3 часа до срока); квадратными скобками обозначены град или гололедные отложения с указанием их диаметра в мм.
Облачность - указаны через наклонную черту общая и нижняя облачность в баллах и высота нижней границы облаков в метрах; квадратными скобками обозначены формы облаков: Ci - перистые, Cs - перисто-слоистые, Cc - перисто-кучевые, Ac - высококучевые, As - высокослоистые, Sc - слоисто-кучевые, Ns - слоисто-дождевые, Cu - кучевые, Cb - кучево-дождевые. Подробнее классификацию облаков см. в Атласе облаков (PDF).
T - Температура воздуха - температура, измеренная на высоте 2 м над землей.
Td - Температура точки росы - температура, при понижении до которой содержащийся в воздухе водяной пар достигнет насыщения.
f - Относительная влажность воздуха - влажноcть воздуха, измеренная на высоте 2 м над землей.
Te - Эффективная температура - температура, которую ощущает одетый по сезону человек в тени. Характеристика душности погоды. При расчете учитывается влияние влажности воздуха и скорости ветра на теплоощущения человека.
Tes - Эффективная температура на солнце - температура, которую ощущает человек, с поправкой на солнечный нагрев. Характеристика знойности погоды. Зависит от высоты солнца над горизонтом, облачности и скорости ветра. Ночью, в пасмурную погоду, а также при ветре 12 м/с и более поправка равна нулю.
P - Атмосферное давление - приведенное к уровню моря атмосферное давление.
Po - Атмосферное давление - измеренное на уровне метеостанции атмосферное давление.
Tmin - Минимальная температура - минимум температуры воздуха на высоте 2 м над землей.
Tmax - Максимальная температура - максимум температуры воздуха на высоте 2 м над землей.
R - Количество осадков - Количество выпавших осадков за период времени, мм. При наведении курсора мыши на число - период времени, за который выпало указанное количество осадков.
R24 - Количество осадков - Количество выпавших осадков за 24 часа, мм.
S - Снежный покров - Высота снежного покрова, см. При наведении курсора мыши на число - состояние снежного покрова и степень покрытия местности в баллах.